Flag for U.S.A. Weather past 2 weeks in Wilmington, North Carolina, U.S.A.

Now
67 °F

Mostly cloudy.


Feels Like: 67 °F
Forecast: 65 / 80 °F
Wind: 5 mph from Northeast

Location: New Hanover International Airport

Current Time: Sep 18, 2014 at 4:33:12 AM

Latest Report: Sep 18, 2014 at 3:53 AM


Visibility: 10 mi

Pressure: 29.90 "Hg

Humidity: 93%

Dew point: 65 °F

Location of WilmingtonLocation

Historic Weather in Wilmington — Graph

°F

Wilmington temperature yesterday

Maximum temperature yesterday: 81 °F (at 12:53 PM)
Minimum temperature yesterday: 65 °F (at 6:53 AM)
Average temperature yesterday: 72 °F

Past Weeks' High & Low Weather Summary

 TemperatureHumidityPressure
High91 °F (Sep 3, 2:53 PM)100% (Sep 8, 6:53 AM)30.22 "Hg (Sep 8, 6:53 AM)
Low65 °F (Sep 17, 6:53 AM)54% (Sep 3, 2:53 PM)29.86 "Hg (Sep 17, 3:59 PM)
Average76 °F85%30.06 "Hg
* Reported Sep 3 2:53 AM — Sep 18 2:53 AM, Wilmington, Weather by CustomWeather, © 2014

Note: Actual official high and low records may vary slightly from our data, if they occured in-between our weather recording intervals... More about our weather records

Advertising

Wilmington weather history for previous 24 hours

 ConditionsComfort  
Time TempWeatherWind HumidityBarometerVisibility
2:53 AM
Sep 18
67 °FPassing clouds.6 mph93%29.89 "Hg10 mi
1:53 AM68 °FPassing clouds.8 mph93%29.90 "Hg10 mi
12:53 AM68 °FPassing clouds.8 mph93%29.92 "Hg10 mi
11:53 PM
Sep 17
69 °FClear.8 mph93%29.92 "Hg10 mi
10:53 PM70 °FClear.8 mph90%29.91 "Hg10 mi
9:53 PM71 °FClear.9 mph90%29.91 "Hg10 mi
8:53 PM72 °FClear.8 mph93%29.90 "Hg10 mi
7:53 PM73 °FSunny.6 mph94%29.89 "Hg10 mi
6:53 PM75 °FSunny.6 mph88%29.88 "Hg10 mi
5:53 PM76 °FLight rain. Overcast.7 mph85%29.87 "Hg10 mi
4:53 PM79 °FPartly sunny.7 mph79%29.87 "Hg10 mi
3:59 PM72 °FHeavy rain. Fog.6 mph91%29.86 "Hg2 mi
2:53 PM81 °FPassing clouds.8 mph67%29.87 "Hg10 mi
1:53 PM81 °FScattered clouds.7 mph67%29.89 "Hg10 mi
12:53 PM81 °FScattered clouds.8 mph67%29.91 "Hg10 mi
12:01 PM80 °FPartly sunny.5 mph69%29.93 "Hg10 mi
10:53 AM76 °FPassing clouds.5 mph80%29.93 "Hg10 mi
9:53 AM72 °FLow clouds.7 mph87%29.94 "Hg10 mi
8:53 AM70 °FPartly sunny.6 mph87%29.93 "Hg10 mi
7:53 AM67 °FClear.5 mph93%29.93 "Hg10 mi
6:53 AM65 °FClear.6 mph97%29.92 "Hg10 mi
5:53 AM66 °FClear.No wind93%29.92 "Hg10 mi
4:53 AM66 °FClear.7 mph96%29.88 "Hg10 mi
Weather by CustomWeather, © 2014

See weather overviewHow to use our weather pages